Showing default

OPS 7869 (DMSP 4B F1), 3266

Orbit data source: Space-Track

OPS 7869 (DMSP 4B F1), 3266 is a payload satellite owned by SAMSO (US) in SSO that was launched on Thu, 23 May 1968 UTC via a THOR BURNER 2 launch vehicle from the Air Force Western Test Range (AFWTR). Payload-class satellites include a variety of spacecraft equipped with specific instruments for various scientific and technological missions. These include communications satellites like Starlink; space stations such as the ISS; scientific satellites like the Hubble; Earth observation satellites from companies like Planet Labs, Umbra, and HawkEye 360; GPS; miniature CubeSats for education and research; and military/defense satellites.

Loading next visibility...
Identifier
3266, 1968-042A
Orbit
SSO
Country
Flag of USUS
Related business
Manufacturer
RCA/East Windsor
Mission
Non-operational Defense Weather
Bus & Motor
DMSP BLOCK 4B, Unknown motor
Mass
79 kg wet, 79 kg dry
Launch date (UTC)
1968-05-23 (57 years ago)
Launch vehicle
THOR BURNER 2
Launch site
Air Force Western Test Range (AFWTR)
Object type
Payload
Rocket body
Debris
Shape & HBR
Oct Cyl, 0.4 m
Radar Cross Section
0.655 m², Medium (>0.1 m² and < 1m²)

Expand to show TLE details & history
Last TLE update: 14 hours ago

TLE from 14 hours ago
0 OPS 7869 (DMSP 4B F1)
1 03266U 68042A   25259.06079133  .00000056  00000-0  49412-4 0  9994
2 03266  98.5679  95.5702 0052798  11.5664 348.6711 14.15813339874349
Epoch: 2025-09-16T01:27Z
TLE epoch observation values (Epoch: 2025-09-16T01:27:32.37Z)
Latitude
Longitude
78.42882°
Altitude
805.095 km
Speed
7.47 km/s
True Right ascension
06h 22m 16s
True Declination
0° 00' 00"
Sunlit
Object was in daylight at epoch
Visualization orbit readout
Latitude
Unknown
Longitude
Unknown
Altitude
Unknown
Speed
Unknown
Apparent Right ascension
Unknown
Apparent Declination
Unknown
Sunlit
N/A
Visualization observer readout
Local Sidereal Time
07:50:40
Azimuth
Unknown
Elevation
Unknown
Doppler factor
Unknown
Orbital elements
Apogee altitude
874.797 km
Perigee altitude
798.611 km
Semi-major axis
7,214.841 km
Eccentricity
0.00528
Inclination
98.5679°
RAAN
95.5702°
Arg. of periapsis
11.5664°
True anomaly
348.55148°
Mean anomaly
348.6711°
Eccentric anomaly
348.61137°
Mean motion
3.54163 °/min
Orbital period
101.65 mins
BSTAR
0.000049412
Loading maneuver chart data...
Computing Atmospheric mass density...
Loading historical data...
Loading historical data...
Loading historical data...
Loading historical data...
Loading historical data...
Loading historical data...
Loading historical data...
Other satellites on launch #42 in the year 1968 (1968-05-23 UTC)

Documentation

Showing up to 5 results
|